Tracking 31011 objects as of 12-Jul-2025
HD Live streaming from Space Station
objects crossing your sky now

STARLINK-31997

Track STARLINK-31997 now!
10-day predictions
STARLINK-31997 is classified as:


NORAD ID: 60288
Int'l Code: 2024-132L
Perigee: 481.5 km
Apogee: 483.2 km
Inclination: 53.2 °
Period: 94.1 minutes
Semi major axis: 6853 km
RCS: Unknown
Launch date: July 28, 2024
Source: United States (US)
Launch site: AIR FORCE EASTERN TEST RANGE (AFETR)
Your satellite tracking list
Your tracking list is empty




NASA's NSSDC Master Catalog

Two Line Element Set (TLE):
1 60288U 24132L   25193.12631607  .00001103  00000-0  49358-4 0  9990
2 60288  53.1602  89.4965 0001176  80.4530 279.6603 15.30201519 54727
Source of the keplerian elements: AFSPC